Temp
55 56 57 59 59 59 59 59 59 58 57 59 55 54 57 54 58 68 70 70 70 68 67 66 66 65 65 65 66 64 62 62 63 64 63 66 72 72 75 78 78 76 76
52 53 55 57 57 57 57 57 58 57 56 57 54 51 52 58 61 61 70 70 70 70 67 66 65 64 64 64 65 64 62 62 62 61 59 55 58 65 71 76 76 75 78
49 51 53 54 57 56 56 56 57 56 55 54 55 52 55 55 58 58 65 70 71 70 68 67 65 64 64 63 64 63 63 60 61 62 61 55 55 63 67 70 74 73 75
50 52 52 53 55 56 57 57 56 55 54 53 52 47 46 47 52 53 57 61 71 69 68 67 66 65 64 64 64 64 63 62 59 61 64 66 66 66 59 66 70 73 73
49 50 52 54 56 57 56 56 56 56 55 52 50 48 46 48 51 53 54 60 69 69 69 68 66 64 65 65 64 63 63 62 62 61 61 63 67 71 71 65 64 67 73
48 50 52 54 54 56 55 55 54 54 55 53 50 48 46 46 47 49 50 54 61 66 66 66 65 65 63 65 65 65 64 62 62 62 62 61 61 61 71 69 69 67 70
47 48 50 51 52 52 53 53 53 53 54 53 51 48 47 47 47 48 48 50 54 60 65 65 65 65 65 64 67 67 64 62 62 62 62 63 63 65 72 71 70 71 75
47 48 49 50 51 51 52 52 52 52 53 52 51 49 49 48 48 48 48 49 53 56 58 66 65 64 65 66 66 70 67 64 63 62 63 64 66 67 73 72 67 67 71
45 46 49 49 50 50 51 51 51 52 52 52 51 51 49 48 47 47 50 49 52 55 57 57 66 64 64 66 64 67 67 66 65 65 64 64 71 72 72 75 75 64 61
45 47 48 48 49 50 52 51 51 51 52 53 52 51 49 49 48 47 48 49 50 54 55 56 64 66 65 64 64 64 67 68 67 67 66 67 68 70 72 69 73 65 67
44 46 47 49 49 50 50 50 50 50 51 52 52 51 50 50 49 47 47 50 50 53 52 54 56 65 65 63 62 63 64 64 66 67 65 66 68 69 68 66 66 65 67
45 46 46 47 47 48 49 49 49 50 50 52 52 51 50 49 48 47 47 48 50 50 52 53 55 61 66 64 62 63 63 63 63 65 65 64 65 66 66 66 61 61 61
43 44 44 44 45 46 47 48 49 49 50 51 51 51 50 48 47 47 47 48 49 49 49 50 52 55 62 66 63 64 63 63 64 64 63 64 64 64 66 63 62 62 61
41 42 42 43 44 45 45 46 47 49 49 50 50 50 50 48 48 47 45 46 47 48 47 48 50 53 57 61 63 61 61 61 61 61 63 62 62 62 62 62 62 62 61
39 40 40 42 43 43 44 45 46 47 48 48 48 48 50 51 49 47 45 45 46 47 48 48 49 52 55 48 48 60 63 61 61 62 62 62 61 56 59 62 62 61 60
36 39 41 42 41 42 43 44 43 44 46 47 47 49 49 50 48 47 44 44 45 45 46 46 47 49 49 39 40 41 51 62 62 60 61 62 54 54 49 49 51 58 60
36 38 40 41 42 42 43 42 43 44 44 45 46 48 48 48 47 47 43 43 43 45 44 45 46 46 44 39 39 39 50 57 62 62 61 62 63 56 60 48 48 48 48
38 40 42 42 43 44 43 43 43 43 42 43 45 47 47 47 48 47 43 43 43 44 43 44 44 44 44 39 38 37 52 54 61 63 61 61 62 63 63 62 58 58 59
42 43 44 44 44 44 43 43 42 43 42 42 43 45 46 46 47 45 42 41 42 44 44 44 43 42 43 38 38 39 49 50 56 63 64 63 62 53 49 61 60 59 59
44 43 43 44 44 44 44 41 40 40 40 41 42 45 46 46 46 44 41 41 42 43 44 43 43 41 42 39 38 39 43 43 44 50 58 49 60 48 44 57 59 58 61
43 44 44 42 43 44 43 38 37 36 38 41 43 45 46 46 47 46 42 41 41 42 42 42 43 42 41 41 38 38 41 39 40 44 48 51 42 43 46 47 61 60 61
43 43 42 42 43 43 39 36 35 38 41 41 42 44 45 46 48 46 44 43 41 40 39 39 40 43 43 39 39 38 37 37 40 41 43 45 39 39 39 42 46 44 45
41 42 41 41 42 41 38 37 38 39 41 42 41 42 44 46 47 46 43 44 40 42 39 37 37 39 42 43 39 39 38 37 40 41 38 36 37 38 40 41 39 40 53
40 41 40 39 38 37 39 41 41 42 41 41 41 41 40 40 44 45 44 42 41 40 42 41 36 39 39 38 39 41 43 39 42 40 42 37 35 36 38 45 47 49 54
39 39 37 36 35 39 40 41 41 40 40 40 41 41 41 39 39 42 42 44 44 39 39 39 41 38 36 35 36 36 39 39 38 42 40 40 40 39 39 40 42 44 51
38 36 35 35 37 38 38 39 39 39 38 38 40 40 40 40 39 39 40 38 37 37 36 35 36 39 36 35 36 36 36 36 35 38 37 36 36 35 36 35 37 39 40
MSLP
1024.34 1023.79 1023.15 1022.44 1021.81 1021.38 1020.98 1020.31 1019.62 1019.19 1018.58 1017.64 1017.12 1016.31 1015.30 1014.61 1013.68 1012.43 1012.26 1012.63 1013.05 1013.48 1013.84 1014.14 1014.68 1015.19 1015.98 1016.62 1017.13 1018.09 1018.88 1019.34 1019.89 1020.42 1020.93 1021.40 1021.24 1021.17 1021.09 1021.15 1021.53 1022.10 1022.46
1024.73 1024.30 1023.60 1022.90 1022.20 1021.66 1021.31 1020.79 1020.30 1019.82 1019.41 1018.79 1018.23 1017.78 1016.73 1015.03 1014.12 1013.07 1011.83 1012.17 1012.52 1012.90 1013.44 1013.69 1014.36 1014.93 1015.55 1016.54 1016.76 1017.43 1017.86 1018.79 1019.38 1019.68 1020.69 1021.52 1022.12 1021.75 1021.21 1020.97 1021.29 1021.70 1021.98
1025.29 1024.69 1024.08 1023.35 1022.61 1022.02 1021.57 1021.15 1020.68 1020.24 1019.78 1019.32 1018.60 1017.90 1016.65 1015.62 1014.12 1013.46 1012.60 1011.83 1011.94 1012.40 1012.83 1013.34 1013.63 1014.16 1015.13 1015.76 1016.08 1016.66 1017.20 1017.85 1018.76 1019.01 1018.96 1020.22 1020.46 1020.90 1021.23 1021.12 1021.05 1021.45 1021.64
1025.84 1025.20 1024.58 1023.76 1023.05 1022.46 1022.01 1021.59 1021.09 1020.54 1020.15 1019.72 1019.02 1018.74 1017.97 1016.83 1015.82 1014.97 1013.80 1012.51 1011.35 1011.72 1012.17 1012.72 1013.05 1013.52 1013.47 1015.08 1015.34 1016.07 1016.61 1016.99 1017.61 1018.40 1018.30 1018.45 1018.76 1018.94 1020.32 1020.97 1020.80 1021.07 1021.27
1026.47 1025.55 1024.97 1024.32 1023.64 1022.94 1022.35 1021.89 1021.38 1020.78 1020.45 1020.11 1019.67 1019.11 1018.43 1017.57 1016.41 1015.35 1014.21 1012.69 1011.21 1011.23 1011.57 1012.01 1012.69 1013.10 1013.82 1014.19 1014.81 1015.30 1016.03 1016.42 1016.79 1017.20 1017.85 1018.16 1018.20 1017.88 1017.80 1018.97 1020.13 1020.75 1020.56
1026.97 1026.20 1025.44 1024.76 1024.14 1023.45 1022.79 1022.26 1021.66 1021.02 1020.63 1020.23 1019.90 1019.38 1018.80 1017.91 1016.78 1015.82 1014.94 1013.57 1012.32 1011.21 1011.32 1011.52 1012.16 1012.40 1013.24 1013.32 1014.35 1014.65 1015.21 1015.86 1016.13 1016.48 1017.08 1017.15 1017.44 1017.75 1017.48 1017.59 1018.62 1019.32 1019.58
1027.36 1026.54 1025.83 1025.17 1024.54 1023.93 1023.18 1022.53 1021.88 1021.19 1020.81 1020.30 1019.97 1019.64 1018.98 1018.29 1017.35 1016.50 1015.57 1014.44 1013.25 1012.09 1011.07 1011.42 1011.63 1012.12 1012.71 1013.12 1013.57 1014.14 1014.70 1015.04 1015.31 1015.68 1015.98 1016.68 1017.01 1017.37 1017.36 1017.28 1017.47 1017.76 1018.02
1027.74 1027.02 1026.37 1025.79 1025.09 1024.37 1023.58 1022.97 1022.25 1021.46 1021.01 1020.59 1020.09 1019.70 1019.16 1018.49 1017.69 1016.95 1015.93 1015.07 1014.21 1013.18 1012.22 1010.97 1011.32 1011.73 1012.21 1012.74 1012.70 1013.12 1013.98 1014.30 1014.73 1015.32 1015.39 1015.97 1016.38 1016.68 1016.85 1016.65 1017.13 1017.23 1017.20
1027.84 1027.23 1026.60 1026.03 1025.42 1024.73 1023.97 1023.44 1022.75 1021.93 1021.33 1020.81 1020.31 1019.62 1019.25 1018.61 1017.89 1017.03 1016.23 1015.34 1014.59 1013.36 1012.53 1011.75 1010.60 1011.11 1011.61 1011.41 1012.32 1012.10 1013.25 1013.84 1014.22 1014.68 1015.15 1015.48 1015.59 1015.70 1016.27 1016.13 1016.30 1016.91 1017.29
1027.79 1027.28 1026.66 1026.16 1025.71 1025.12 1024.41 1023.80 1023.16 1022.40 1021.67 1021.02 1020.34 1019.74 1019.23 1018.55 1017.87 1017.28 1016.37 1015.57 1014.76 1013.94 1012.75 1011.70 1010.38 1010.38 1010.83 1011.39 1011.58 1011.90 1012.37 1012.83 1013.39 1013.76 1014.28 1014.67 1015.02 1015.34 1015.84 1015.96 1015.96 1016.67 1017.08
1028.00 1027.56 1027.13 1026.57 1025.99 1025.40 1024.72 1023.97 1023.30 1022.61 1021.87 1021.19 1020.47 1019.81 1019.10 1018.50 1017.89 1017.25 1016.57 1015.59 1014.75 1013.85 1012.89 1011.97 1011.21 1009.94 1010.34 1010.88 1011.11 1010.73 1011.22 1011.78 1012.50 1012.95 1013.42 1013.85 1014.27 1014.65 1015.33 1016.05 1016.14 1016.42 1016.77
1028.32 1027.94 1027.56 1026.98 1026.31 1025.64 1025.02 1024.23 1023.58 1022.83 1022.20 1021.49 1020.57 1019.82 1019.12 1018.53 1017.88 1017.29 1016.65 1015.94 1014.98 1014.12 1013.18 1012.44 1011.50 1010.35 1009.55 1010.25 1010.61 1010.79 1010.92 1011.24 1011.37 1012.03 1012.78 1013.06 1013.67 1014.06 1014.75 1015.23 1015.83 1016.21 1016.54
1028.60 1028.22 1027.88 1027.31 1026.62 1025.96 1025.28 1024.56 1023.75 1023.06 1022.50 1021.66 1020.76 1019.87 1019.15 1018.54 1017.88 1017.37 1016.94 1016.07 1015.13 1014.16 1013.43 1012.53 1011.84 1010.86 1009.62 1009.40 1010.05 1010.35 1010.42 1010.71 1010.69 1011.22 1011.73 1012.09 1012.98 1013.38 1013.73 1014.23 1014.92 1015.71 1016.20
1028.86 1028.47 1028.03 1027.52 1026.89 1026.31 1025.59 1024.76 1024.04 1023.39 1022.73 1021.91 1020.96 1019.97 1019.23 1018.53 1017.83 1017.41 1017.05 1016.12 1015.23 1014.18 1013.38 1013.16 1012.54 1011.73 1010.65 1009.95 1009.29 1009.65 1010.18 1010.38 1010.66 1010.60 1010.74 1010.89 1011.93 1012.51 1012.95 1013.55 1014.15 1015.09 1015.61
1029.06 1028.60 1028.04 1027.53 1027.03 1026.46 1025.79 1025.05 1024.42 1023.78 1022.93 1021.97 1021.12 1020.28 1019.46 1018.57 1017.93 1017.47 1017.22 1016.40 1015.47 1014.57 1013.73 1013.30 1012.61 1011.86 1011.19 1011.63 1011.03 1010.06 1009.85 1009.83 1009.75 1010.47 1011.13 1010.31 1010.89 1011.48 1011.93 1012.46 1013.31 1014.12 1014.39
1029.09 1028.56 1027.98 1027.44 1026.95 1026.53 1025.91 1025.29 1024.80 1024.14 1023.44 1022.26 1021.35 1020.59 1019.77 1018.78 1018.11 1017.66 1017.36 1016.58 1015.72 1014.73 1013.87 1013.44 1013.12 1012.33 1011.93 1012.25 1011.46 1011.33 1010.35 1009.57 1009.37 1008.73 1009.46 1009.83 1009.92 1010.57 1011.04 1011.20 1011.82 1012.52 1012.98
1028.76 1028.21 1027.64 1027.09 1026.72 1026.42 1025.95 1025.37 1024.98 1024.30 1023.68 1022.67 1021.79 1020.89 1020.11 1019.08 1018.35 1017.80 1017.64 1016.73 1015.95 1015.05 1014.29 1013.89 1013.62 1013.05 1012.89 1012.53 1011.83 1011.15 1010.19 1009.23 1008.44 1008.26 1008.70 1009.10 1009.14 1009.86 1010.26 1010.67 1010.95 1011.18 1011.68
1028.18 1027.68 1027.26 1026.82 1026.53 1026.17 1025.88 1025.49 1024.93 1024.19 1023.68 1022.91 1022.02 1021.14 1020.27 1019.41 1018.56 1017.92 1017.77 1017.09 1016.27 1015.28 1014.78 1014.41 1014.21 1013.84 1013.42 1013.04 1011.87 1010.51 1009.28 1008.47 1007.97 1007.71 1008.06 1008.23 1008.11 1008.27 1008.90 1009.45 1010.14 1010.40 1010.53
1027.48 1027.30 1027.11 1026.76 1026.31 1025.94 1025.84 1025.46 1024.80 1024.20 1023.65 1023.09 1022.28 1021.32 1020.50 1019.61 1018.81 1018.23 1018.08 1017.45 1016.56 1015.57 1015.04 1014.75 1014.59 1014.39 1013.80 1013.14 1012.06 1010.72 1009.52 1008.60 1007.92 1007.15 1007.18 1007.05 1007.22 1007.36 1007.82 1008.93 1008.77 1009.02 1009.31
1027.26 1027.14 1027.01 1026.62 1026.20 1025.92 1025.74 1025.40 1025.05 1024.52 1023.97 1023.30 1022.51 1021.57 1020.81 1019.99 1019.24 1018.71 1018.57 1017.90 1017.13 1016.25 1015.56 1015.01 1014.87 1014.64 1014.18 1013.34 1012.13 1011.15 1010.28 1009.52 1008.83 1007.95 1007.19 1006.89 1007.00 1007.18 1007.27 1008.08 1007.95 1008.08 1007.90
1027.09 1027.09 1026.79 1026.53 1026.28 1025.97 1025.74 1025.58 1025.41 1024.96 1024.53 1023.70 1022.61 1021.59 1020.97 1020.14 1019.41 1018.90 1018.84 1018.27 1017.55 1016.81 1016.10 1015.44 1015.19 1014.96 1014.54 1013.83 1012.81 1012.16 1011.29 1010.75 1009.73 1008.94 1007.98 1007.56 1007.16 1007.45 1007.09 1006.85 1006.69 1006.45 1006.32
1026.96 1026.90 1026.68 1026.57 1026.30 1026.18 1026.20 1026.01 1025.56 1025.14 1024.27 1023.58 1022.58 1021.69 1021.09 1020.39 1019.60 1019.01 1018.67 1018.48 1017.95 1017.25 1016.65 1016.08 1015.69 1015.39 1015.00 1014.31 1013.21 1012.53 1011.95 1011.23 1010.14 1009.45 1008.98 1008.33 1008.04 1007.82 1007.37 1007.09 1006.43 1006.53 1006.53
1027.03 1026.98 1026.82 1026.57 1026.40 1026.53 1026.64 1025.88 1025.54 1025.27 1024.24 1023.46 1022.68 1021.93 1021.20 1020.65 1019.91 1019.20 1018.92 1018.35 1018.21 1017.51 1017.08 1016.73 1016.39 1016.04 1015.35 1014.60 1013.74 1012.87 1011.92 1011.14 1010.34 1009.84 1009.49 1008.77 1007.88 1007.44 1006.62 1006.28 1006.00 1006.37 1006.08
1027.21 1027.22 1026.99 1026.73 1026.69 1026.98 1026.44 1025.91 1025.62 1025.16 1024.44 1023.60 1022.86 1022.18 1021.65 1021.21 1020.14 1019.54 1019.14 1018.90 1018.74 1018.36 1017.69 1017.24 1017.02 1016.61 1016.18 1015.50 1014.70 1013.78 1012.50 1011.47 1010.53 1009.85 1009.32 1008.69 1008.24 1007.53 1006.91 1005.92 1005.68 1005.62 1005.13
1027.55 1027.57 1027.39 1027.33 1027.26 1026.84 1026.38 1026.07 1025.81 1025.42 1024.54 1023.86 1023.14 1022.46 1022.04 1021.73 1021.02 1020.22 1019.81 1019.32 1019.27 1019.63 1019.09 1018.60 1017.78 1017.22 1016.81 1016.49 1015.88 1014.88 1013.76 1012.94 1011.85 1010.48 1009.95 1008.90 1008.54 1008.04 1007.42 1007.08 1006.58 1006.36 1004.89
1027.82 1027.84 1027.95 1027.75 1027.38 1027.03 1026.68 1026.47 1026.24 1025.72 1024.86 1024.03 1023.34 1022.94 1022.43 1021.83 1021.60 1020.96 1020.36 1020.11 1019.93 1019.84 1019.83 1019.81 1019.58 1018.65 1017.95 1017.15 1016.26 1015.45 1014.53 1013.57 1012.37 1011.17 1010.69 1010.08 1009.75 1009.35 1008.85 1008.40 1007.73 1007.21 1006.53
Wind_Speed
17 20 20 20 20 18 18 19 19 19 15 13 14 11 11 11 8 7 9 10 9 11 10 8 13 12 10 12 13 8 12 7 7 6 4 2 4 8 8 8 8 10 10
19 19 21 21 20 20 19 19 18 18 15 12 11 9 11 9 11 8 8 10 12 12 11 9 11 13 12 13 14 13 7 6 11 7 6 4 2 6 7 8 8 10 9
19 19 20 20 20 20 20 19 19 18 16 18 12 11 10 8 7 8 8 11 13 11 13 12 12 14 13 12 14 9 16 9 11 12 6 6 4 9 8 9 9 10 9
17 18 19 20 20 20 18 19 19 17 16 18 15 16 9 11 10 9 10 14 13 11 12 13 12 13 10 15 15 15 7 11 14 9 2 5 9 9 5 8 10 10 11
19 18 18 18 19 19 18 18 19 18 17 17 16 12 13 9 10 10 14 16 10 13 13 15 14 15 13 13 15 16 17 9 12 10 8 4 7 8 8 8 9 8 11
17 18 18 17 18 19 18 18 20 19 18 16 17 16 15 15 11 12 10 10 11 7 11 13 11 11 11 13 12 15 17 12 13 12 10 8 6 4 6 5 11 11 12
17 18 19 18 18 20 19 18 20 20 19 18 16 17 15 14 15 14 10 13 10 8 9 11 11 11 12 12 12 13 14 14 10 15 11 7 7 5 11 7 7 6 7
16 17 18 18 19 19 19 20 20 20 20 19 18 14 16 9 10 11 10 9 9 10 12 11 11 11 13 14 14 11 13 9 10 12 8 9 9 9 11 9 5 4 6
16 17 18 18 19 18 19 19 20 19 19 19 16 15 15 15 12 14 12 9 11 11 12 13 14 14 12 14 15 11 14 14 13 15 14 10 12 11 12 10 8 5 5
17 18 18 19 18 18 17 18 18 18 19 19 16 14 15 15 13 12 14 13 12 13 13 12 12 13 15 14 13 15 16 15 13 12 17 17 13 12 11 7 10 4 7
18 18 18 18 19 19 18 17 17 18 17 17 17 17 16 16 14 11 13 15 15 16 14 14 12 12 13 13 14 10 16 16 16 15 14 16 15 11 10 8 6 7 7
17 17 18 19 19 19 18 18 17 17 17 17 17 16 16 16 15 15 15 14 15 13 14 12 13 11 15 13 15 15 12 18 16 16 17 17 11 15 12 10 9 8 7
18 17 17 18 18 18 18 17 17 17 16 17 17 17 17 16 15 16 16 15 15 14 14 13 13 15 11 14 13 16 14 16 18 17 18 17 17 17 13 10 9 9 7
18 17 16 17 18 17 17 17 17 17 17 16 16 17 17 17 15 15 16 16 16 14 12 13 13 11 11 8 7 8 9 4 5 9 15 18 15 16 15 11 12 12 10
18 16 16 17 17 18 16 16 16 17 17 16 16 16 17 16 16 15 15 16 15 14 13 13 11 11 7 10 11 7 10 11 13 16 19 15 19 22 19 13 15 16 13
17 16 17 18 17 18 16 15 16 16 17 16 16 16 16 16 16 16 15 16 15 14 12 11 12 10 7 14 15 10 9 13 15 11 16 16 17 17 18 20 20 17 16
17 17 17 18 17 16 16 15 15 15 15 16 15 16 16 16 16 15 16 16 16 15 13 12 11 11 12 18 17 15 9 11 11 10 12 14 12 19 17 20 23 21 20
14 15 16 17 18 15 14 14 14 14 14 14 15 15 15 16 16 16 16 16 14 13 11 12 11 10 9 17 20 21 7 7 12 13 12 12 14 17 20 18 19 19 19
14 14 16 18 16 14 14 14 13 13 12 14 15 15 15 16 16 16 15 14 14 13 12 10 12 13 12 19 20 17 9 8 11 13 13 13 14 13 19 19 19 19 17
14 14 17 16 14 14 13 13 13 14 14 14 14 14 14 14 14 15 12 13 13 13 11 12 11 11 14 16 22 18 9 9 8 10 12 16 18 13 14 19 12 14 17
16 16 15 13 13 12 12 12 12 13 14 15 15 13 14 13 13 13 9 11 12 12 12 13 11 11 13 15 19 18 10 9 8 7 8 8 9 12 14 20 14 20 14
16 15 13 12 12 11 12 12 13 14 13 14 14 13 13 11 10 12 11 12 12 12 11 12 11 10 10 13 17 16 13 13 7 8 7 9 17 16 13 9 16 9 8
13 12 12 12 11 12 11 11 12 13 15 14 14 14 14 12 11 10 10 9 10 11 10 9 10 11 11 12 17 15 15 16 10 8 10 16 14 15 9 10 12 12 9
12 12 12 12 12 11 12 12 13 14 15 14 13 12 12 15 11 9 9 8 10 11 11 11 9 11 12 12 12 11 12 14 12 11 9 9 8 6 7 8 6 6 9
10 10 11 11 11 12 13 13 14 15 14 13 12 11 9 11 12 11 8 9 10 8 10 12 12 10 11 13 19 17 12 12 12 11 8 11 12 11 10 9 9 9 6
10 10 10 10 12 13 13 13 13 13 13 12 9 8 9 8 8 8 8 4 3 4 8 15 14 13 17 22 24 23 17 16 14 10 10 10 10 11 10 9 9 8 9
Wind_Direction
355 358 357 357 356 1 357 356 354 354 350 351 348 342 329 324 304 257 203 200 194 188 195 187 179 174 192 191 182 169 171 160 156 146 105 99 189 186 185 175 179 170 180
358 0 357 357 358 0 0 355 358 354 350 352 343 330 314 304 297 282 218 210 216 203 193 177 182 182 184 194 194 194 172 175 170 161 131 145 178 231 210 188 188 180 184
356 360 359 358 356 1 2 355 356 356 352 349 348 339 330 331 319 352 299 220 216 205 199 200 181 183 186 194 193 191 181 178 182 175 143 152 181 168 192 214 196 184 199
1 1 1 359 358 0 359 358 356 357 354 351 349 349 338 330 326 312 304 303 213 200 201 208 196 187 184 196 196 200 189 183 180 179 170 205 140 196 162 213 211 204 208
352 358 2 0 360 359 360 358 358 358 357 354 350 347 340 326 319 322 322 323 228 206 200 197 201 187 198 199 196 198 210 201 187 183 176 160 183 223 187 176 192 212 214
353 354 357 357 0 358 358 357 358 1 356 353 351 346 340 333 334 333 325 331 316 205 206 202 191 191 195 194 197 199 200 203 199 186 182 172 162 181 203 193 178 201 208
355 357 359 358 355 354 355 355 356 358 357 352 353 345 343 336 334 333 328 326 322 319 200 205 202 195 187 196 203 203 189 190 183 187 172 172 184 171 230 216 172 184 180
352 354 358 358 353 352 352 356 353 353 358 354 347 349 342 337 332 330 332 320 315 312 320 202 206 204 195 195 198 197 201 196 187 194 191 195 201 199 213 202 183 223 212
351 353 353 357 354 353 351 353 350 350 353 353 350 349 342 340 335 332 327 329 309 316 313 322 200 195 200 203 206 199 203 203 199 199 201 205 214 201 212 204 198 159 258
353 352 353 355 351 352 347 347 350 347 348 349 348 349 346 341 339 335 333 331 325 313 313 313 259 197 205 208 217 203 211 202 202 207 204 205 211 213 217 223 201 177 215
351 350 351 352 348 348 346 343 345 345 346 345 347 345 348 347 339 341 333 334 329 329 330 318 320 215 208 205 213 234 195 200 209 205 208 212 212 213 204 199 220 191 201
348 348 347 348 347 346 345 343 343 343 343 341 343 346 346 350 349 342 341 334 330 327 329 319 316 311 205 202 208 214 223 206 199 202 208 212 211 210 201 201 195 201 195
349 346 344 346 345 344 342 343 341 345 344 338 340 346 348 348 347 351 340 339 334 335 334 334 324 322 318 209 206 208 215 222 215 209 206 210 207 210 202 188 197 206 204
340 341 339 343 343 342 339 342 340 342 342 339 340 346 347 346 348 351 345 344 340 338 343 330 318 311 325 317 206 192 213 255 250 237 214 195 202 205 199 202 215 222 214
333 334 335 339 342 340 338 339 340 338 338 338 341 345 344 345 351 354 347 342 348 345 346 335 324 317 329 25 0 295 233 216 220 231 230 223 208 215 214 204 220 218 214
327 324 332 335 342 338 336 335 337 335 334 335 338 342 344 345 353 355 346 349 351 356 352 350 337 329 43 3 10 345 286 249 232 220 224 224 216 214 208 199 206 207 205
325 327 328 336 340 338 333 337 331 327 333 332 337 341 344 343 351 358 350 354 352 2 5 0 350 350 32 359 351 336 290 252 237 217 220 230 214 214 216 213 206 204 203
318 322 333 333 336 335 336 334 331 333 333 334 337 340 345 343 347 357 355 352 352 0 8 10 5 357 14 354 345 339 317 274 245 226 224 236 237 212 210 214 216 223 217
331 333 332 333 332 339 339 335 334 337 339 341 337 338 345 345 345 356 355 348 355 359 10 16 12 5 3 354 352 351 341 332 278 246 244 230 217 209 201 224 221 216 220
333 332 332 333 339 342 342 343 347 349 346 342 336 340 344 344 349 351 356 347 357 0 2 12 9 4 359 357 358 1 2 352 328 308 291 243 239 210 198 215 222 238 219
332 336 333 340 342 344 348 353 351 353 342 337 336 346 348 344 352 349 8 349 357 0 5 8 6 3 351 352 356 359 4 351 326 312 311 329 352 314 234 206 225 232 218
334 337 337 341 342 352 354 352 348 348 345 342 340 347 350 352 347 358 5 5 359 360 8 5 4 359 355 349 351 348 354 347 337 330 321 316 321 308 290 272 252 243 217
337 340 337 335 347 4 350 339 351 342 336 347 348 347 346 353 352 360 6 6 8 7 9 3 1 354 355 3 352 344 352 359 354 347 309 298 297 288 287 258 242 231 228
343 340 336 340 347 354 329 339 344 341 334 341 341 347 354 345 353 2 6 11 18 7 5 6 360 353 358 357 353 351 357 359 5 355 358 343 331 343 343 344 327 236 236
344 342 344 346 340 332 339 338 344 337 333 335 336 347 352 352 349 353 9 9 29 16 12 6 359 359 356 350 348 347 354 356 349 359 10 17 11 5 7 1 354 338 313
345 354 354 339 338 337 342 347 343 340 334 332 337 349 333 354 355 348 349 30 35 357 50 31 19 354 356 347 352 345 333 350 344 22 17 19 13 9 2 355 350 342 339